Location: Oshawa
(43.9000°N, 78.8670°W)
Time: 00:13:37
(UTC-04:00)

Courier 1B - All Passes

Search period start: 26 April 2017 00:00
Search period end: 06 May 2017 00:00
Orbit: 963 x 1209 km, 28.3° (Epoch: 24 April)

Date Brightness Start Highest point End Pass type
(mag) Time Alt. Az. Time Alt. Az. Time Alt. Az.
26 Apr - 01:17:49 10° SSW 01:22:31 18° SSE 01:27:19 10° ESE visible
26 Apr - 03:09:41 10° SW 03:15:40 25° S 03:21:42 10° SE visible
26 Apr - 05:03:21 10° WSW 05:08:54 21° SSW 05:14:26 10° SSE visible
26 Apr - 07:00:30 10° SW 07:01:52 10° SSW 07:03:15 10° SSW daylight
27 Apr - 00:25:14 10° S 00:28:58 14° SSE 00:32:45 10° SE night (unlit)
27 Apr - 02:16:14 10° SW 02:22:00 23° S 02:27:53 10° SE visible
27 Apr - 04:09:26 10° WSW 04:15:14 23° S 04:21:05 10° SE visible
27 Apr - 06:04:44 10° SW 06:08:19 14° SSW 06:11:54 10° S daylight
27 Apr - 23:33:32 10° S 23:35:27 11° SSE 23:37:23 10° SE night (unlit)
28 Apr - 01:22:58 10° SW 01:28:22 22° SSE 01:33:56 10° ESE visible
28 Apr - 03:15:41 10° SW 03:21:34 24° S 03:27:33 10° SE visible
28 Apr - 05:10:09 10° SW 05:14:44 17° SSW 05:19:19 10° SSE visible
29 Apr - 00:29:54 10° SSW 00:34:47 19° SSE 00:39:48 10° ESE night (unlit)
29 Apr - 02:22:05 10° SW 02:27:55 24° S 02:33:54 10° SE visible
29 Apr - 04:15:58 10° WSW 04:21:07 19° SSW 04:26:19 10° SSE visible
29 Apr - 23:37:07 10° SSW 23:41:14 16° SSE 23:45:28 10° SE night (unlit)
30 Apr - 01:28:37 10° SW 01:34:16 24° S 01:40:07 10° SE night (unlit)
30 Apr - 03:22:01 10° WSW 03:27:28 21° S 03:33:02 10° SE visible
30 Apr - 05:18:20 10° SW 05:20:31 11° SSW 05:22:41 10° S visible
30 Apr - 22:44:51 10° S 22:47:44 13° SSE 22:50:40 10° SE visible
01 May - 00:35:19 10° SW 00:40:39 22° S 00:46:12 10° SE night (unlit)
01 May - 02:28:15 10° SW 02:33:50 23° S 02:39:35 10° SE visible
01 May - 04:23:12 10° SW 04:26:57 14° SSW 04:30:42 10° S visible
01 May - 23:42:11 10° SSW 23:47:05 20° SSE 23:52:11 10° SE night (unlit)
02 May - 01:34:38 10° SW 01:40:12 23° S 01:45:58 10° SE night (unlit)
02 May - 03:28:50 10° SW 03:33:21 17° SSW 03:37:56 10° SSE visible
02 May - 22:49:16 10° SSW 22:53:34 17° SSE 22:58:00 10° SE visible
03 May - 00:41:09 10° SW 00:46:36 23° S 00:52:15 10° SE night (unlit)
03 May - 02:34:48 10° SW 02:39:44 19° SSW 02:44:48 10° SSE visible
03 May - 21:56:42 10° S 22:00:05 14° SSE 22:03:33 10° SE visible
03 May - 23:47:49 10° SW 23:53:01 22° S 23:58:25 10° SE visible
04 May - 01:41:00 10° SW 01:46:08 21° S 01:51:27 10° SE night (unlit)
04 May - 03:36:57 10° SW 03:39:10 11° SSW 03:41:24 10° S visible
04 May - 21:04:58 10° S 21:06:38 11° SSE 21:08:20 10° SE visible
04 May - 22:54:38 10° SW 22:59:28 20° S 23:04:31 10° SE visible
05 May - 00:47:21 10° SW 00:52:33 22° S 00:57:57 10° SE night (unlit)
05 May - 02:42:04 10° SW 02:45:36 14° SSW 02:49:13 10° S night (unlit)
05 May - 22:01:36 10° SSW 22:05:58 18° SSE 22:10:28 10° SE visible
